Location: Guerbigny
(49.7000°N, 2.6616°E)
Time: 11:12:24
(UTC+00:00)

Daily predictions for brighter satellites

Satellite Brightness Start Highest point End
(mag) Time Altitude Azimuth Time Altitude Azimuth Time Altitude Azimuth
Cosmos 2322 3.8 18:26:36 10° S 18:32:05 55° ESE 18:37:36 10° NE
Cosmos 1066 Rocket 4.4 18:27:24 10° N 18:33:16 65° ENE 18:39:02 10° SSE
Cosmos 2233 Rocket 4.0 18:27:27 10° S 18:33:33 73° E 18:39:43 10° NNE
Cosmos 1726 1.4 18:33:24 10° S 18:36:08 57° E 18:38:54 10° NNE
Resurs 1-3 3.6 18:32:45 10° SSE 18:37:01 64° ENE 18:41:20 10° N
SAR-Lupe-2 3.5 18:41:24 10° SSE 18:44:58 83° ENE 18:48:35 10° NNW
Cosmos 1315 Rocket 4.4 18:43:32 10° NNE 18:46:21 18° ENE 18:49:10 10° ESE
Meteor PRIRODA 3.3 18:46:29 10° SSE 18:49:45 66° ENE 18:53:01 10° N
ATLAS 2AS CENTAUR R/B 4.2 18:43:25 10° W 18:49:57 35° NNW 18:56:17 10° NE
Cosmos 1125 Rocket 4.1 18:45:22 10° NNW 18:50:14 39° ENE 18:55:06 10° SE
Cosmos 1842 3.3 18:48:15 10° N 18:51:47 47° ENE 18:55:17 10° SSE
USA 59 Rocket 0.2 18:49:34 10° NW 18:53:20 75° SW 18:58:32 10° SE
Cosmos 1536 3.7 18:51:11 10° SSE 18:54:24 26° E 18:57:38 10° NNE
Okean 3 Rocket 4.3 18:50:53 10° SSE 18:54:51 32° E 18:58:49 10° NNE
Cosmos 1707 2.9 18:52:10 10° N 18:55:36 43° ENE 18:58:59 10° SSE
Cosmos 2061 Rocket 4.3 18:49:13 10° SSW 18:55:38 77° W 19:02:07 10° N
Cosmos 1515 Rocket 4.1 18:51:44 10° N 18:55:48 37° ENE 18:59:50 10° SE
COSMOS 2428 2.7 18:50:12 10° SSW 18:55:51 68° ESE 19:01:34 10° NNE
Cosmos 1818 3.9 18:55:32 10° SW 19:01:00 75° NW 19:06:31 10° NE
Okean O Rocket 2.6 18:57:42 10° SE 19:01:28 29° ENE 19:05:18 10° N
Cosmos 2278 Rocket 2.2 19:00:36 10° NNW 19:06:19 78° ENE 19:11:59 10° SSE
USA 306 2.2 19:04:39 10° WSW 19:07:44 88° NNW 19:11:23 10° ENE
CZ-4B DEB 4.3 19:03:45 10° SSE 19:09:17 87° WSW 19:14:49 10° NNW
CZ-4 R/B 1.2 19:06:27 10° SSE 19:10:17 83° ENE 19:14:12 10° NNW
NOSS 2-1 (C) 4.3 19:10:00 10° NW 19:13:41 50° SW 19:18:40 10° SSE
CZ-4B R/B 3.2 19:08:25 10° SSE 19:13:46 63° ENE 19:19:05 10° N
Cosmos 1766 Rocket 3.5 19:10:04 10° S 19:14:25 90° W 19:18:51 10° N
Meteor 2-17 Rocket 4.4 19:09:39 10° N 19:15:45 78° E 19:21:49 10° SSE
Resurs 01 Rocket 1.6 19:11:27 10° SSE 19:15:49 66° ENE 19:20:13 10° N
Helios 1A 2.8 19:12:21 10° NNE 19:16:27 80° ESE 19:20:30 10° SSW
USA 290 2.5 19:13:28 10° NNW 19:16:45 68° WSW 19:20:02 10° SSE
ADEOS 4.1 19:13:22 10° S 19:18:31 61° WSW 19:23:41 10° NNW
GEOS 3 Rocket 3.8 19:13:48 10° SE 19:19:01 76° SW 19:24:13 10° NW
USA 186 1.7 19:17:55 10° SSE 19:21:06 77° ENE 19:24:21 10° N
CZ-4B R/B 4.1 19:16:43 10° S 19:21:21 54° W 19:26:06 10° NNW
Cosmos 1814 Rocket 4.1 19:16:54 10° SSW 19:22:12 86° WNW 19:27:29 10° NNE
PAYLOAD B 4.3 19:16:48 10° SSE 19:22:24 88° WSW 19:28:04 10° NNW
Cosmos 2360 Rocket 4.4 19:17:46 10° WSW 19:22:33 28° NW 19:27:21 10° NNE
KORONAS-FOTON 4.0 19:18:59 10° NNW 19:22:40 68° W 19:26:20 10° S
Cosmos 1743 4.4 19:19:47 10° SW 19:23:03 33° WNW 19:26:20 10° N
MOS 1-B 4.4 19:17:59 10° SSE 19:23:40 61° ENE 19:29:23 10° N
SPOT 5 3.7 19:22:14 19° ESE 19:24:29 28° ENE 19:28:16 10° N
Okean-O 3.6 19:23:04 20° ESE 19:25:14 30° ENE 19:29:04 10° N
USA 267 4.0 19:21:28 10° ENE 19:27:40 48° N 19:33:52 10° WNW
Cosmos 1408 Rocket 3.9 19:24:26 10° SSE 19:28:33 41° E 19:32:42 10° NNE
ISS -3.3 19:26:22 10° SW 19:29:32 40° SSE 19:30:43 28° ESE
SPOT 1/Viking Rocket 4.4 19:24:39 10° S 19:29:41 51° W 19:34:44 10° NNW
NOSS 3-3 (A) 4.3 19:25:18 10° S 19:30:04 33° ESE 19:35:30 10° NE
CZ-4B R/B 3.3 19:26:33 10° S 19:30:22 62° WSW 19:34:26 10° NNW
Kosmos-1783 4.2 19:30:21 10° WSW 19:32:11 26° NW 19:33:12 15° N
SL-08 R/B 4.0 19:28:07 10° N 19:32:59 61° WNW 19:37:49 10° SSW
Cosmos 2237 Rocket 2.2 19:29:23 10° S 19:34:53 57° ESE 19:40:24 10° NE
CSL-04 Rocket 3.6 19:32:12 10° SSE 19:37:34 85° ENE 19:42:54 10° NNW
Aureole 3 Rocket 4.1 19:31:19 10° SSE 19:37:36 43° E 19:42:13 10° NNE
Cosmos 2219 Rocket 4.0 19:34:39 10° WSW 19:39:48 34° NW 19:44:57 10° NNE
Cosmos 1356 Rocket 4.0 19:38:32 10° NNW 19:42:40 57° W 19:46:45 10° S
Meteor 1-14 Rocket 4.5 19:38:07 10° SSW 19:43:38 71° WNW 19:49:12 10° N
Lacrosse 4 Rocket 4.2 19:41:54 10° WNW 19:44:21 15° WSW 19:46:48 10° SW
Meteor 1-4 Rocket 4.4 19:43:30 10° NW 19:45:38 21° W 19:47:44 10° SSW
IKONOS-2 4.5 19:42:10 10° NNE 19:46:16 55° E 19:50:19 10° S
Meteor 1-11 Rocket 3.6 19:41:03 10° S 19:46:37 69° E 19:52:08 10° NNE
MOS 1 Rocket 4.1 19:45:38 27° ESE 19:47:44 39° ENE 19:52:38 10° N
CARTOSAT-1 4.1 19:46:43 10° S 19:50:53 57° W 19:55:05 10° NNW
Cosmos 158 Rocket 3.8 19:47:01 10° S 19:51:49 61° ESE 19:56:37 10° NNE
ATLAS CENTAUR R/B 1.0 19:48:20 10° SSW 19:51:49 55° SE 19:54:53 14° NE
NOSS 3-4 (A) 4.3 19:46:38 10° NW 19:52:57 48° NE 19:57:11 24° E
NOSS 3-4 (C) 4.3 19:46:45 10° NW 19:53:03 48° NE 19:57:18 24° E
Cosmos 1805 Rocket 3.7 19:52:47 29° SSE 19:54:39 49° E 19:58:51 10° NNE
Cosmos 1428 Rocket 4.4 19:51:44 10° N 19:57:52 75° E 20:02:18 20° SSE
Cosmos 1733 3.3 19:55:33 10° SSW 19:58:57 63° WNW 20:02:23 10° N
In-Cosmos 22 4.5 19:54:52 10° NNW 20:00:33 69° W 20:06:00 10° S
USA 276 3.5 19:58:26 10° W 20:00:38 24° SW 20:00:38 24° SW
Cosmos 2369 Rocket 3.0 19:57:59 10° NNW 20:03:16 36° NE 20:05:12 28° E
SL-24 R/B 4.5 20:01:56 34° SE 20:03:45 54° E 20:08:26 10° N
Cosmos 1980 3.7 19:58:43 10° SSW 20:04:25 85° WNW 20:10:09 10° NNE
Meteor 1-21 4.4 20:02:26 10° N 20:08:08 58° ENE 20:10:23 36° SE
Sich 1 2.8 20:07:33 27° S 20:09:49 75° E 20:14:08 10° NNE
Cosmos 1943 Rocket 2.7 20:04:58 10° NW 20:10:20 53° WSW 20:14:05 19° S
Cosmos 1707 Rocket 4.2 20:06:54 10° N 20:11:03 37° ENE 20:11:05 37° ENE
DELTA 2 DEB (DPAF) 4.1 20:07:51 10° NNE 20:11:47 49° E 20:11:47 49° E
NOSS 0 Rocket 4.4 20:06:51 10° SW 20:13:03 63° NW 20:19:17 10° NNE
Cosmos 2298 Rocket 4.0 20:08:54 10° NNW 20:14:14 89° WSW 20:16:27 36° SSE
Terra 2.2 20:13:52 40° E 20:14:26 42° ENE 20:18:53 10° N
ACS3 Solar Sail 2.0 20:09:35 15° S 20:15:07 76° WSW 20:21:34 10° NNW
Nadezhda 4 Rocket 4.4 20:08:59 10° NNW 20:15:10 63° W 20:21:22 10° S
ERS-1 Rocket 3.2 20:14:03 42° ESE 20:15:11 51° ENE 20:20:04 10° N
Cosmos 2195 Rocket 4.4 20:09:13 10° N 20:15:22 88° E 20:19:12 25° S
Cosmos 2150 Rocket 3.9 20:10:44 10° NNW 20:15:56 86° WSW 20:17:56 38° SSE
USA 32 4.0 20:11:18 10° N 20:16:34 89° WNW 20:19:24 28° S
Cosmos 1570 Rocket 4.1 20:11:49 10° SSW 20:17:06 76° WNW 20:22:23 10° NNE
Cosmos 1975 3.3 20:18:59 42° NE 20:18:59 42° NE 20:21:53 10° NNE
Cosmos 1805 3.0 20:21:37 64° SSW 20:22:06 81° W 20:25:47 10° N
Cosmos 1315 Rocket 3.7 20:18:51 10° NNW 20:22:41 46° W 20:24:27 27° SSW
Cosmos 2026 Rocket 3.9 20:16:26 10° N 20:22:44 85° E 20:25:51 31° SSE
Cosmos 1092 Rocket 3.9 20:16:50 10° N 20:23:13 84° E 20:26:28 31° SSE
Ariane Rocket 3.5 20:24:21 38° ENE 20:24:47 39° ENE 20:29:29 10° N
Meteor 2-12 Rocket 4.4 20:20:20 10° N 20:26:31 76° ENE 20:28:56 39° SSE
Cosmos 836 Rocket 4.4 20:22:18 10° SSW 20:27:36 89° ESE 20:32:56 10° NNE
IRS-1A Rocket 4.2 20:26:27 43° SE 20:28:25 75° ENE 20:34:07 10° NNW
Okean 3 4.1 20:29:26 10° N 20:32:45 42° NE 20:32:45 42° NE
SL-16 R/B 2.2 20:35:16 53° ESE 20:35:17 53° ESE 20:40:48 10° NE
Okean O Rocket 3.0 20:35:02 19° SSW 20:37:37 36° W 20:41:43 10° NNW
Cosmos 1634 Rocket 3.9 20:36:32 34° S 20:39:26 76° E 20:45:47 10° NNE
Cosmos 1656 Rocket 3.6 20:34:36 10° NNW 20:40:18 78° ENE 20:41:19 60° SE
SL-14 R/B 3.8 20:36:38 10° NNW 20:40:20 51° W 20:40:36 50° WSW
USA 306 3.5 20:37:18 10° WNW 20:40:35 42° N 20:40:35 42° N
USA 59 Rocket 3.0 20:41:03 10° W 20:42:38 12° WSW 20:44:24 10° SW
ATLAS 2AS CENTAUR R/B 4.5 20:37:09 10° NW 20:42:53 26° N 20:48:26 10° ENE
IRS-1C Rocket 4.0 20:45:02 61° SSE 20:46:01 89° WSW 20:51:21 10° NNW
Cosmos 773 Rocket 3.9 20:45:39 40° SSW 20:47:38 86° ESE 20:52:57 10° NNE
Cosmos 2278 Rocket 4.4 20:45:47 10° NW 20:49:44 20° W 20:53:39 10° SW
Okean 1-7 4.2 20:45:49 10° N 20:48:39 32° NNE 20:48:39 32° NNE
Cosmos 2263 4.4 20:45:47 10° NNW 20:51:26 56° NE 20:51:55 54° ENE
Resurs 01 Rocket 4.3 20:49:58 10° SW 20:52:42 16° W 20:55:26 10° NW
Cosmos 2228 Rocket 3.2 20:50:52 10° NNW 20:55:20 79° WNW 20:55:20 79° WNW
SPOT 3 Rocket 3.5 21:00:55 72° ENE 21:00:55 72° ENE 21:05:56 10° NNW
Okean-O 3.9 21:00:31 31° SW 21:01:31 35° W 21:05:35 10° NNW
SPOT 5 3.8 21:01:23 34° SW 21:02:23 39° W 21:06:35 10° NNW
Cosmos 2142 Rocket 4.3 21:02:36 65° ESE 21:02:43 66° E 21:08:49 10° NNE
NOSS 3-3 (C) 4.0 21:00:44 10° SW 21:06:14 71° NW 21:12:49 10° NE
ISS -1.1 21:02:54 10° W 21:03:42 16° W 21:03:42 16° W
USA 267 3.4 21:08:22 47° E 21:10:11 65° NNE 21:16:39 10° WNW
Cosmos 724 4.3 21:15:31 66° NE 21:15:31 66° NE 21:20:29 10° NE
Cosmos 2180 Rocket 4.4 21:17:01 73° E 21:17:04 73° E 21:23:26 10° NNE
Cosmos 2237 Rocket 3.9 21:14:17 10° WSW 21:19:15 31° NW 21:24:16 10° NNE
NOSS 3-3 (A) 4.4 21:15:03 10° WSW 21:20:31 58° NW 21:27:04 10° NE
Cosmos 2279 Rocket 3.9 21:19:59 64° SSW 21:20:59 81° W 21:27:16 10° N
Cosmos 1607 4.0 21:18:07 10° SW 21:24:35 81° NW 21:31:04 10° NE
Cosmos 2297 4.1 21:23:32 10° NW 21:28:59 54° WSW 21:28:59 54° WSW
ATLAS CENTAUR R/B 3.4 21:26:29 10° W 21:29:30 23° NNW 21:29:51 23° NNW
Spot 2 Rocket 4.1 21:31:06 52° W 21:31:06 52° W 21:35:45 10° NNW
NOSS 3-4 (A) 4.0 21:37:25 10° NW 21:44:09 59° SW 21:44:37 58° SW
NOSS 3-4 (C) 4.0 21:37:31 10° NW 21:44:15 60° SW 21:44:43 59° SW
Cosmos 2369 Rocket 2.9 21:41:58 10° NW 21:46:58 48° W 21:46:58 48° W
Terra 3.5 21:52:34 27° W 21:52:34 27° W 21:56:11 10° NW
ACS3 Solar Sail 4.3 21:56:47 10° WSW 22:00:14 15° W 22:03:42 10° NW
Ariane Rocket 4.4 22:04:29 32° WNW 22:04:29 32° WNW 22:08:20 10° NNW
Cosmos 2266 Rocket 4.4 22:03:52 10° NNW 22:09:40 55° W 22:09:40 55° W
SL-16 R/B 3.7 22:17:00 23° W 22:19:40 33° NW 22:24:48 10° NNE
ATLAS 2AS CENTAUR R/B 3.6 22:29:14 10° NW 22:35:42 39° NNE 22:36:31 38° NE
Cosmos 1943 4.4 22:41:44 37° N 22:41:44 37° N 22:45:16 10° NNE
USA 267 4.2 22:55:43 38° W 22:55:43 38° W 22:59:44 10° WNW
Cosmos 1697 Rocket 4.2 22:48:36 10° NNW 22:52:28 30° NNE 22:52:28 30° NNE
Cosmos 2344 3.9 23:19:22 10° NW 23:27:14 82° W 23:27:14 82° W
Cosmos 1980 Rocket 3.7 23:48:49 10° NNW 23:52:14 32° N 23:52:14 32° N
